Вернуться в каталог

CZ-6A DEB

АктивенPO
NORAD 60836·DEBRIS·🇨🇳 China

Запущен Aug 6, 2024 с Taiyuan Satellite Launch Center

Loading…

Ближайшие Пролёты (ближайшие 24 часа)

TLE

СвежийSource: Space-Track

Эпоха: Sep 13, 2026, 23:20 UTC

1 60836U 24140HP  26256.97251881  .00003764  00000-0  63093-3 0  9990
2 60836  88.9859 257.6684 0099482 283.0901  75.9226 14.66320189110503

Отслеживайте CZ-6A DEB в реальном времени с AllMySat

Download on the App Store